Asuncion, Paraguay

10:43 AM -04 en Marzo 30, 2017 (GMT -0400)
Silvio Pettirossi International

Tiempo Historia de SGAS - Marzo, 2017

Change the Weather History Date:

Lunes, Marzo 20, 2017

  Actual Average Record
Temperature  
Temperatura media 78 ° F -  
Temperatura máxima 89 ° F 85 ° F 100 ° F (2005)
Temperatura mínima 67 ° F 68 ° F 62 ° F (2004)
Cooling Degree Days 13    
Growing Degree Days 28 (Base 50)    
Moisture  
Punto de rocío 67 ° F    
Average Humidity 68    
Maximum Humidity 100    
Minimum Humidity 35    
Precipitación  
Precipitación 0.00 pul 0.19 pul - ()
Presión al nivel del mar  
Presión al nivel del mar 30.00 pul    
Viento  
Velocidad del viento 3 mph ()    
Velocidad máxima del viento 8 mph    
Max Gust Speed -    
Visibilidad 7.7 Millas    
Eventos      
Averages and records for this station are not official NWS values.
T = Trace of Precipitation, MM = Missing Value Source: Averaged Metar Reports

Daily Weather History Graph

Daily Weather History Graph

Search for Another Location

Airport or City:

Trip Planner

Search our weather history database for the weather conditions in past years. The results will help you decide how hot, cold, wet, or windy it might be!

Date:

Astronomía

Mar. 20, 2017 Salida Puesta
Hora real 6:53 AM -03 7:00 PM -03
Crepúsculo civil 6:30 AM -03 7:23 PM -03
Crepúsculo náutico 6:04 AM -03 7:50 PM -03
Crepúsculo astronómico 5:37 AM -03 8:16 PM -03
Luna Sin salida de luna 1:34 PM -03 (3/20)
Horas de luz 12h 52m
Horas de luz
12h 06m
Gibosa menguante, 50% of the Moon is Illuminated
Mar 20
Gibosa menguante
Mar 20
Cuarto menguante
Mar 27
Nueva
Abr 3
Cuarto creciente
Abr 11
Luna llena

Hourly Weather History & Observations

Hora (-03) Temp. Índice de calor Punto de rocío Humedad Presión Visibilidad Wind Dir Velocidad del viento Velocidad de ráfagas Precip Eventos Condiciones
12:00 AM 74 ° F - 67 ° F 72% 29.99 pul 12 mi SSE 5.8 mph - -  
12:00 AM 73.4 ° F - 66.2 ° F 78% 29.98 pul - SSE 5.8 mph - N/A   Despejado
1:00 AM 73.4 ° F - 66.2 ° F 78% 29.98 pul - SSE 5.8 mph - N/A   Despejado
3:00 AM 71 ° F - 66 ° F 80% 29.98 pul 12 mi Sin viento Sin viento - -   Despejado
3:00 AM 69.8 ° F - 66.2 ° F 88% 29.98 pul - Sin viento Sin viento - N/A   Despejado
4:00 AM 68.0 ° F - 66.2 ° F 94% 29.98 pul - Sin viento Sin viento - N/A   Despejado
5:00 AM 66.2 ° F - 66.2 ° F 100% 29.98 pul - Sin viento Sin viento - N/A   Despejado
6:00 AM 68 ° F - 65 ° F 88% 30.00 pul 12 mi Sin viento Sin viento - -  
6:00 AM 66.2 ° F - 66.2 ° F 100% 29.98 pul - Sin viento Sin viento - N/A   Despejado
7:00 AM 68.0 ° F - 66.2 ° F 94% 30.01 pul - Variable 2.3 mph - N/A   Despejado
8:00 AM 73.4 ° F - 66.2 ° F 78% 30.04 pul - Sin viento Sin viento - N/A   Despejado
8:30 AM 77.0 ° F - 68.0 ° F 74% 30.04 pul - Sin viento Sin viento - N/A   Despejado
9:00 AM 77 ° F - 69 ° F 69% 30.04 pul 12 mi Este 3.5 mph - -  
9:00 AM 80.6 ° F 83.9 ° F 69.8 ° F 70% 30.04 pul - Este 3.5 mph - N/A   Despejado
9:30 AM 82.4 ° F 86.3 ° F 69.8 ° F 66% 30.06 pul - Este 4.6 mph - N/A   Despejado
10:00 AM 84.2 ° F 89.6 ° F 71.6 ° F 66% 30.06 pul - ENE 4.6 mph - N/A   Despejado
10:30 AM 84.2 ° F 88.4 ° F 69.8 ° F 62% 30.04 pul - NE 4.6 mph - N/A   Despejado
11:00 AM 86.0 ° F 90.4 ° F 69.8 ° F 58% 30.04 pul 6.2 mi NE 3.5 mph - N/A   Nubes dispersas
12:00 PM 87 ° F - 69 ° F 46% 30.04 pul 12 mi NE 4.6 mph - -   Muy nublado
12:00 PM 86.0 ° F 89.4 ° F 68.0 ° F 55% 30.04 pul 6.2 mi NE 4.6 mph - N/A   Muy nublado
1:00 PM 89.6 ° F 93.4 ° F 68.0 ° F 49% 30.01 pul 6.2 mi NNE 5.8 mph - N/A   Muy nublado
2:00 PM 87.8 ° F 91.4 ° F 68.0 ° F 52% 29.98 pul 6.2 mi NE 5.8 mph - N/A   Muy nublado
3:00 PM 89 ° F - 65 ° F 35% 29.98 pul 12 mi ENE 5.8 mph - -   Muy nublado
3:00 PM 91.4 ° F 94.0 ° F 66.2 ° F 43% 29.98 pul 6.2 mi ENE 5.8 mph - N/A   Muy nublado
4:00 PM 91.4 ° F 94.0 ° F 66.2 ° F 43% 29.95 pul 6.2 mi Variable 5.8 mph - N/A   Nubes dispersas
6:00 PM 88 ° F - 66 ° F 38% 29.96 pul 12 mi Este 3.5 mph - -   Nubes dispersas
6:00 PM 87.8 ° F 89.4 ° F 64.4 ° F 46% 29.95 pul 6.2 mi Este 3.5 mph - N/A   Parcialmente nublado
7:00 PM 84.2 ° F 86.6 ° F 66.2 ° F 55% 29.95 pul 6.2 mi Este 3.5 mph - N/A   Parcialmente nublado
8:00 PM 78.8 ° F - 66.2 ° F 65% 29.95 pul 4.3 mi Este 3.5 mph - N/A   Parcialmente nublado
9:00 PM 77 ° F - 69 ° F 69% 29.99 pul 4 mi Sin viento Sin viento - -   Humo
9:00 PM 75.2 ° F - 68.0 ° F 78% 29.98 pul 4.3 mi Sin viento Sin viento - N/A   Desconocido
10:00 PM 73.4 ° F - 66.2 ° F 78% 29.98 pul 4.3 mi SSO 2.3 mph - N/A   Desconocido
11:00 PM 77.0 ° F - 68.0 ° F 74% 30.01 pul 4.3 mi SE 8.1 mph - N/A   Desconocido